SCP
0 0 0 0 0 0 0 0 0 0 0 0 0 0 0 0 -0 0 0 0 0 0 0 0 0 0 0 0 0 0 -0 -0 0 -0 -0 0 0 0 0 0 0 0 0 0 0 0 0 0 -0 -0 0 -0 0 0
0 0 0 0 0 0 0 0 0 0 0 0 0 0 0 0 0 0 0 0 0 0 0 0 0 -0 -0 -0 0 0 -0 -0 0 -0 0 0 0 0 0 0 0 0 0 0 0 0 0 -0 0 -0 -0 -0 0 0
0 0 0 0 0 0 0 0 0 0 0 0 0 0 0 0 0 0 0 0 0 0 0 0 0 0 0 0 -0 0 0 0 0 0 0 0 0 0 0 0 0 0 0 0 0 0 -0 -0 -0 -0 0 0 0 0
0 0 0 0 0 0 0 0 0 0 0 0 0 0 0 0 0 0 0 0 0 0 0 0 0 0 0 0 -0 -0 0 0 0 0 0 0 0 0 0 0 0 0 0 0 0 0 0 0 0 -0 0 0 0 0
0 0 0 0 0 0 0 0 0 0 0 0 0 0 0 0 0 0 0 0 0 0 0 0 -0 0 0 0 -0 -0 -0 -0 0 0 0 0 0 0 0 0 0 0 0 0 -0 -0 -0 0 -0 0 0 0 0 0
0 0 0 0 0 0 0 0 0 0 0 0 0 0 0 0 0 0 0 0 0 0 0 0 0 0 0 0 0 -0 -0 0 0 0 0 -0 -0 0 0 0 0 0 0 -0 -0 0 -0 0 0 0 0 0 0 0
0 0 0 0 0 0 0 0 0 0 0 0 0 0 0 0 0 0 0 0 0 0 0 0 0 0 0 0 0 0 0 0 0 0 0 -0 -0 -0 0 0 -0 0 0 -0 -0 -0 -0 0 0 0 0 0 0 0
0 0 0 0 0 0 0 0 0 0 0 0 0 0 0 0 0 0 0 0 0 0 0 0 0 0 0 0 0 0 0 0 0 0 0 -0 -0 -0 -0 0 0 -0 0 -0 -0 -0 0 0 0 0 0 0 0 0
0 0 0 0 0 0 0 0 0 0 0 0 0 0 0 0 0 0 0 0 0 0 0 0 0 0 0 0 0 0 0 0 0 0 0 0 0 0 -0 -0 -0 -0 0 -0 0 -0 0 -0 -0 0 0 0 0 0
0 0 0 0 0 0 0 0 0 0 0 0 0 0 0 0 0 0 0 0 0 0 0 0 0 0 0 0 0 0 0 0 0 0 0 0 0 0 -0 0 -0 -0 -0 -0 0 0 -0 0 -0 0 0 0 0 0
0 0 0 0 0 0 0 0 0 0 0 0 0 0 0 0 0 0 0 0 0 0 0 0 0 0 0 0 0 0 0 0 0 0 0 -0 -0 0 0 0 0 -0 -0 0 0 0 -0 -0 0 -0 -0 -0 -0 0
0 0 0 0 0 0 0 0 0 0 0 0 0 0 0 0 0 0 0 0 0 0 0 0 0 0 0 0 0 0 0 0 0 0 0 0 -0 0 0 -0 0 0 0 -0 -0 0 -0 -0 0 0 0 -0 0 0
0 0 0 0 0 0 0 0 0 0 0 0 0 0 0 0 0 0 0 0 0 0 0 0 0 0 0 0 0 0 0 0 0 0 0 0 0 0 0 0 -0 -0 0 -0 -0 -0 -0 -0 0 0 0 -0 0 0
0 0 0 0 0 0 0 0 0 0 0 0 0 0 0 0 0 0 0 0 0 0 0 0 0 0 0 0 0 0 0 0 -0 -0 -0 0 0 0 -0 -0 -0 -0 0 0 -0 -0 -0 0 0 0 0 0 0 0
0 0 0 0 0 0 0 0 0 0 0 0 0 0 0 0 0 0 0 0 0 0 0 0 0 -0 0 0 0 0 0 0 0 -0 -0 -0 0 -0 -0 -0 -0 -0 -0 -0 0 -0 -0 0 0 0 0 0 0 0
0 0 0 0 0 0 0 0 0 0 0 0 0 0 0 0 0 0 0 0 0 0 0 0 0 0 0 0 0 0 0 0 0 0 -0 -0 0 0 0 -0 -0 0 -0 0 -0 0 -0 0 0 0 0 0 0 0
0 0 0 0 0 0 0 0 0 0 0 0 0 0 0 0 0 0 0 0 0 0 0 0 0 0 0 0 0 0 0 0 0 0 0 -0 0 -0 0 -0 -0 -0 -0 -0 -0 -0 0 0 0 0 0 0 0 0
0 0 0 0 0 0 0 0 0 0 0 0 0 0 0 0 0 0 0 0 0 0 0 0 0 0 0 0 0 0 0 0 0 0 0 0 -0 -0 0 -0 -0 -0 -0 -0 -0 -0 -0 -0 -0 -0 -0 -0 0 0
0 0 -0 -0 0 0 0 0 0 0 0 0 0 0 0 0 0 0 0 0 0 0 0 0 0 0 0 0 0 0 0 0 0 0 0 0 -0 -0 0 -0 -0 -0 -0 -0 -0 -0 0 -0 -0 -0 -0 -0 -0 0
-0 -0 -0 0 0 0 0 0 0 0 0 0 0 0 0 0 0 0 0 0 0 0 0 0 0 0 0 0 0 0 0 0 0 0 0 0 0 -0 0 -0 -0 -0 -0 -0 -0 -0 -0 0 0 -0 -0 -0 -0 -0
0 0 0 0 0 0 0 0 0 0 0 0 0 0 0 0 0 0 0 0 0 0 0 0 0 0 0 0 -0 -0 0 0 0 0 0 0 0 0 -0 -0 0 0 0 -0 -0 0 0 0 0 0 -0 -0 -0 0
0 0 0 0 0 0 0 0 0 0 0 0 0 0 -0 0 0 0 0 0 0 0 0 0 0 0 0 0 0 0 0 0 0 0 0 0 0 0 0 0 0 0 0 0 -0 -0 -0 0 0 0 0 0 0 0
0 -0 0 0 0 0 0 0 0 0 0 0 0 0 0 0 -0 -0 -0 0 0 0 0 0 0 0 0 0 0 0 0 0 0 0 0 0 0 0 0 0 0 0 0 0 0 0 -0 -0 0 0 0 0 0 0
-0 0 0 0 0 0 0 0 0 0 0 0 0 0 0 0 0 0 0 0 0 0 0 0 0 0 0 0 0 0 0 -0 0 0 0 0 0 0 0 0 0 0 0 0 0 0 -0 -0 -0 -0 0 -0 0 0
0 0 0 0 0 0 0 0 0 0 0 0 0 0 0 0 0 -0 0 -0 -0 -0 -0 0 0 0 0 0 0 0 0 -0 -0 0 0 0 0 0 -0 0 0 0 0 0 0 0 0 0 -0 -0 -0 0 -0 -0
0 0 0 0 0 0 0 0 0 0 0 0 0 0 0 0 -0 0 0 -0 -0 -0 -0 -0 -0 -0 0 0 0 0 0 0 0 0 0 0 0 0 0 0 0 0 0 0 0 0 0 0 0 -0 -0 -0 0 -0
0 0 0 0 0 0 0 0 0 0 0 0 0 0 0 -0 0 0 -0 -0 -0 -0 -0 -0 -0 0 0 0 0 0 0 0 0 0 0 0 0 0 0 0 0 0 0 0 0 0 0 0 0 0 0 0 -0 -0
0 0 0 0 0 0 0 0 0 0 0 0 0 0 -0 0 0 -0 0 -0 -0 -0 0 0 0 -0 -0 0 0 0 0 0 0 0 0 0 0 0 0 0 0 0 0 0 0 0 0 0 0 0 0 0 0 0
0 0 0 0 0 0 0 0 0 0 0 0 0 0 -0 -0 -0 -0 0 -0 -0 -0 0 -0 -0 -0 -0 -0 -0 0 0 0 0 0 0 0 0 0 0 0 0 0 0 0 0 0 0 0 0 0 0 0 0 0
0 0 0 0 0 0 0 0 0 0 0 0 0 0 0 0 0 0 0 0 0 -0 -0 -0 -0 -0 -0 -0 -0 -0 0 0 0 0 0 0 0 0 0 0 0 0 0 0 0 0 0 0 0 0 0 0 0 0
0 0 0 0 0 0 0 0 0 0 0 0 0 0 0 0 0 0 0 0 -0 -0 0 0 0 0 -0 -0 -0 -0 -0 0 -0 0 0 0 0 0 0 0 0 0 0 0 0 0 0 0 0 0 0 0 0 0
0 0 0 0 0 0 0 0 0 0 0 0 0 0 0 0 0 0 0 0 0 0 0 0 0 0 0 0 0 0 0 0 0 -0 0 0 0 0 0 0 0 0 0 0 0 0 0 0 0 0 0 0 0 0
0 0 0 0 0 0 0 0 0 0 0 0 0 0 0 0 0 0 0 0 0 0 0 0 0 0 0 0 0 0 0 0 0 -0 -0 -0 0 0 0 0 0 0 0 0 0 0 0 0 0 0 0 0 0 0
Wind_Speed_500mb
46 48 51 50 53 57 60 59 58 58 51 45 44 38 32 16 10 20 28 31 31 21 55 50 41 22 16 12 7 19 17 3 6 10 7 7 6 6 7 8 11 5 7 4 10 11 13 17 20 10 12 46 33 40
46 51 50 52 58 60 60 60 58 53 48 44 41 39 31 23 19 18 30 25 27 35 49 69 81 74 73 70 36 12 10 12 4 5 1 5 6 5 10 6 2 4 3 5 6 6 13 32 32 66 70 56 63 41
46 48 52 57 58 61 61 57 53 48 46 45 42 40 34 24 17 20 33 33 35 36 52 31 20 9 12 8 26 19 13 11 6 10 3 4 9 3 6 5 6 7 12 5 6 6 23 35 50 55 10 19 2 12
46 50 54 56 61 58 58 54 50 48 46 44 42 39 35 31 24 27 33 32 28 19 11 17 16 46 37 31 36 39 43 15 11 7 9 5 7 7 5 8 8 8 13 10 9 15 26 15 46 49 40 46 36 26
47 51 55 59 56 56 56 52 48 48 47 44 40 36 34 30 27 29 35 36 34 28 9 27 58 2 14 14 24 31 47 54 19 6 6 6 7 5 7 6 6 14 8 5 5 28 15 21 40 47 42 47 43 37
47 53 53 54 52 53 54 51 48 46 46 43 41 37 31 29 22 19 10 1 6 25 8 8 16 11 12 15 9 23 36 30 20 6 9 8 9 7 5 4 7 15 11 10 12 23 16 30 30 33 35 36 38 47
50 49 51 52 51 52 53 51 48 46 46 46 45 40 33 26 21 17 8 12 18 10 7 10 10 8 15 5 2 9 20 18 17 8 9 7 6 9 4 6 13 15 9 15 21 12 17 26 26 31 33 34 29 36
47 48 50 51 50 50 51 50 49 49 45 44 42 31 23 17 20 25 14 27 21 13 9 5 8 11 3 3 5 9 9 14 11 7 6 6 6 5 6 6 8 13 6 19 18 17 16 23 32 33 31 28 28 39
47 48 48 48 49 48 48 48 48 46 43 44 31 14 8 4 5 4 12 16 32 14 7 7 5 6 6 5 5 5 8 6 7 6 5 4 4 8 6 3 7 13 7 9 13 20 23 32 34 37 31 29 30 37
46 46 47 46 45 44 44 45 46 45 47 33 15 1 4 5 11 13 6 9 28 13 13 8 7 7 5 2 3 3 4 3 5 5 4 6 6 11 11 8 4 10 10 10 17 22 21 27 27 29 32 27 25 28
43 44 45 44 41 40 41 40 40 49 42 31 20 6 10 15 12 7 7 8 14 7 11 11 19 13 10 8 4 4 2 3 4 3 5 4 5 3 12 12 5 17 9 15 18 15 18 26 25 29 30 30 22 21
39 41 40 40 39 37 36 32 38 48 41 39 27 26 14 5 7 6 6 6 9 7 8 6 8 16 8 13 6 4 4 2 6 5 2 5 5 4 15 16 18 22 15 10 14 15 19 28 33 31 32 32 29 20
38 36 34 34 37 36 34 35 40 43 45 12 4 7 6 4 6 10 8 6 6 6 6 4 5 9 8 11 5 4 6 6 5 4 5 7 3 12 19 16 18 19 20 11 12 14 17 26 36 42 42 41 35 25
34 27 29 32 33 33 36 39 39 40 22 5 5 9 9 9 10 8 5 4 6 13 18 24 11 9 9 8 2 6 2 2 2 4 7 4 9 23 28 22 21 20 20 20 14 11 14 23 31 37 43 39 32 30
31 26 25 21 32 38 39 40 38 33 9 8 6 9 10 11 12 11 11 14 13 19 16 18 10 10 4 4 6 3 5 5 7 7 5 3 3 23 28 26 21 19 20 21 18 11 10 15 24 29 34 37 42 42
28 25 15 26 33 37 38 41 37 11 8 9 12 10 13 13 13 5 6 11 17 20 24 8 6 4 6 2 6 9 6 8 5 6 14 11 3 25 26 24 23 20 19 21 21 14 9 9 18 21 26 35 41 45
22 13 25 31 36 38 35 31 6 5 7 8 8 12 20 25 24 19 16 27 27 13 5 5 5 5 2 3 5 3 5 6 13 17 18 20 11 20 26 23 22 23 22 19 20 17 14 10 14 16 22 28 35 43
19 22 26 31 34 39 20 9 5 6 8 11 14 17 15 23 28 29 24 26 16 12 8 5 15 6 5 5 4 3 4 17 19 25 26 28 18 13 24 22 21 23 30 21 21 20 17 19 13 14 17 21 27 33
21 22 21 20 28 26 11 7 6 8 10 20 22 25 28 28 35 35 38 40 33 18 9 9 9 6 6 6 10 15 24 24 30 34 35 38 30 19 18 23 24 22 27 30 28 23 19 18 15 16 17 19 23 25
13 10 15 19 18 7 5 5 7 9 11 14 27 25 32 39 39 37 35 32 18 10 11 8 7 7 10 12 22 27 27 32 31 29 40 41 25 25 24 21 28 25 26 26 30 31 31 26 20 17 18 17 18 24
5 16 21 18 3 3 3 6 6 9 15 13 23 32 33 27 33 26 20 20 5 2 4 8 15 20 23 29 25 29 32 25 24 26 33 50 35 26 27 30 27 32 29 34 35 37 36 34 29 25 22 21 20 21
16 22 14 11 6 2 5 6 10 19 11 17 23 21 21 15 23 13 29 2 5 10 15 25 28 32 35 34 37 32 32 30 27 29 34 43 33 30 31 30 41 42 36 41 41 39 40 41 36 30 25 22 19 20
14 8 5 4 4 3 7 10 6 6 7 11 22 13 7 9 12 29 3 9 14 26 41 36 31 28 29 31 31 29 30 35 36 33 30 30 36 36 47 32 30 48 51 45 50 44 43 41 40 39 38 34 29 26
5 4 2 3 3 6 11 5 7 9 8 8 9 12 11 13 20 7 6 12 38 46 53 50 49 34 23 26 29 33 37 41 40 37 30 29 31 32 36 41 39 38 49 47 49 53 50 52 48 45 42 36 30 25
4 3 2 2 2 3 5 5 6 6 6 14 7 7 7 14 6 6 6 26 53 53 62 61 56 53 45 38 35 37 34 37 39 44 40 32 28 30 32 26 31 35 41 49 52 60 53 55 55 52 48 41 32 26
4 5 5 5 3 4 4 6 3 7 9 6 6 12 8 6 3 8 15 39 46 57 62 61 60 56 50 45 45 50 43 29 28 34 37 27 24 21 23 25 27 33 41 43 46 56 52 44 57 58 54 47 39 30
3 4 6 9 3 2 9 11 12 8 6 4 5 8 6 7 8 9 26 38 50 53 50 51 46 45 48 53 51 62 54 24 16 12 22 21 14 11 20 21 25 28 36 53 47 62 59 59 60 65 61 55 49 39
7 4 6 4 6 8 6 6 5 5 5 5 6 3 5 4 6 16 26 41 40 43 41 43 46 44 43 48 55 58 62 60 46 19 6 22 19 9 5 17 22 21 23 35 42 52 65 52 54 65 66 61 55 48
7 7 5 5 6 8 10 7 6 6 6 4 3 2 6 6 14 18 27 31 33 38 44 51 52 48 51 46 55 60 62 66 69 68 64 60 50 40 25 13 7 19 27 38 39 40 46 58 60 62 63 61 55 51
6 14 5 5 5 7 11 15 12 20 18 14 9 12 15 15 27 28 25 29 38 42 39 39 45 51 55 60 59 62 63 62 62 60 56 55 50 40 38 30 14 13 17 23 35 39 36 36 50 45 61 63 66 63
8 12 5 7 8 10 15 19 22 18 13 7 8 18 21 14 7 36 40 34 32 35 39 40 42 49 52 55 59 60 63 63 61 56 54 50 46 42 35 35 27 21 13 18 24 28 32 45 56 47 45 49 65 71
14 15 10 7 8 14 18 13 6 3 3 4 5 11 12 8 7 17 42 37 33 34 36 34 37 41 43 43 44 46 47 49 53 58 59 58 58 53 39 33 28 25 20 12 17 20 22 28 36 40 43 51 63 73
9 13 15 7 5 4 5 9 1 6 7 5 8 11 10 7 8 13 21 34 36 37 31 26 29 30 37 40 41 39 40 42 44 48 50 53 56 56 56 51 41 32 25 25 21 11 2 7 15 23 30 41 53 61
Wind_Direction_500mb
322 325 327 333 329 328 327 329 330 328 325 323 323 328 327 304 300 294 283 288 277 274 286 274 272 243 255 236 251 310 323 49 301 12 354 336 296 322 290 281 310 301 304 220 218 236 267 22 330 237 330 311 303 300
323 327 327 327 324 326 328 327 325 325 323 322 321 323 325 316 281 288 296 285 284 276 270 284 287 282 268 258 251 270 284 298 254 294 213 293 286 287 292 302 39 299 270 288 253 294 297 292 256 263 262 265 280 285
323 323 323 323 324 328 328 326 326 325 323 322 320 318 315 305 301 275 289 293 292 283 295 285 292 293 307 315 218 218 237 233 219 218 265 282 272 259 293 329 289 240 210 242 301 264 289 301 336 343 51 207 11 53
319 320 321 323 325 328 327 327 329 327 324 322 323 322 317 311 285 261 269 274 268 277 282 280 302 301 292 258 243 256 244 260 279 217 226 248 263 202 286 284 289 280 307 279 253 278 319 310 347 356 18 50 37 49
316 318 321 323 324 326 326 328 331 328 327 327 326 323 321 311 304 295 289 282 251 231 284 296 313 341 329 313 246 242 238 245 272 241 222 238 248 266 227 284 279 340 331 323 330 307 307 327 344 360 12 35 26 40
316 319 322 322 324 327 327 329 332 331 327 325 320 316 309 303 302 315 312 355 314 214 266 291 309 313 337 338 259 233 233 233 238 253 246 254 249 236 292 273 253 331 22 337 284 317 351 354 358 358 7 19 20 36
315 318 321 321 325 326 326 328 329 330 328 324 317 312 303 287 257 230 249 282 314 172 249 280 284 277 315 307 194 201 211 224 230 250 232 255 267 221 261 274 346 354 16 6 11 11 20 12 355 355 359 16 12 28
313 317 318 321 326 326 325 325 328 333 333 325 321 316 310 294 251 255 274 266 247 206 242 265 276 302 274 245 210 201 208 217 227 262 254 245 258 238 257 264 325 5 10 23 34 52 42 14 16 13 16 14 30 38
314 316 318 321 327 325 325 326 331 336 336 332 329 324 313 330 187 185 280 307 225 213 264 232 264 288 320 257 231 225 220 235 227 243 239 211 219 232 239 160 43 23 16 63 50 38 33 23 16 21 25 19 31 42
312 314 318 323 324 325 328 331 333 337 341 341 336 320 228 233 285 288 251 202 189 227 231 251 219 261 298 303 275 265 211 275 254 219 230 233 259 260 228 168 66 53 46 72 43 22 31 27 24 27 31 34 33 45
311 315 318 322 322 326 329 334 337 340 347 359 346 309 285 274 289 221 244 220 192 239 226 239 225 242 248 217 249 232 275 261 271 77 284 302 270 202 165 144 116 112 74 59 57 43 55 37 33 33 32 41 40 51
312 317 318 319 322 326 329 332 337 338 340 323 304 300 301 271 239 250 226 226 195 241 200 213 258 220 238 215 221 187 259 239 255 349 250 262 257 219 158 142 129 124 111 71 47 72 52 39 33 33 36 40 47 59
316 320 320 322 321 323 325 335 333 332 332 330 292 271 242 229 237 218 226 209 218 202 155 13 318 271 197 205 227 199 220 234 314 252 244 242 171 183 175 158 139 132 123 106 59 53 56 46 36 36 38 43 45 62
319 324 321 320 319 328 334 331 331 333 334 298 265 264 214 214 231 221 252 352 23 345 321 312 272 279 207 172 176 222 158 223 243 250 245 216 214 181 173 163 160 154 146 131 111 92 44 43 41 43 44 48 57 71
319 328 324 324 323 324 325 320 319 319 267 262 233 244 240 250 271 283 300 313 305 302 323 314 259 228 201 166 189 198 180 248 230 239 247 238 165 177 179 176 170 162 155 149 132 106 71 49 45 53 56 54 56 63
325 337 337 325 318 318 319 314 319 302 238 239 236 265 285 290 294 303 308 299 340 322 311 235 263 257 232 240 184 220 188 213 262 240 280 311 153 176 185 181 181 170 160 155 147 136 116 70 48 60 67 65 62 63
333 340 326 324 325 330 327 319 314 248 261 265 277 298 288 286 282 297 319 318 330 325 286 272 225 244 57 238 224 219 196 235 275 313 329 325 315 187 180 187 182 177 173 160 166 156 151 126 64 66 71 70 69 71
330 335 332 329 336 341 342 26 341 287 271 277 292 305 304 286 291 297 300 314 319 313 281 280 320 220 221 249 234 251 309 296 334 359 338 331 316 226 203 189 192 190 184 177 180 181 166 151 117 97 95 94 84 83
338 340 343 341 342 345 352 14 9 298 282 298 290 304 306 303 307 309 306 302 299 291 269 281 252 224 226 241 304 322 345 340 336 318 315 323 299 262 231 216 203 191 182 183 190 192 181 165 146 125 116 112 101 92
343 358 348 334 333 332 333 292 292 273 272 301 303 308 304 298 298 299 298 302 263 216 206 220 259 31 341 323 317 317 315 311 303 293 291 306 314 260 245 235 213 206 199 195 188 188 180 176 164 142 126 119 116 111
33 349 342 338 22 193 282 308 281 263 293 289 300 317 306 312 312 305 295 294 244 231 300 7 334 326 324 306 316 323 317 313 296 277 273 292 309 302 267 236 221 208 210 201 195 192 195 190 177 162 149 140 139 127
354 344 6 25 28 342 274 252 266 290 280 280 305 311 297 308 330 342 330 286 61 25 355 331 321 321 319 322 323 330 328 321 313 292 263 266 267 270 269 246 226 219 214 208 205 204 195 191 183 174 164 153 143 138
343 20 31 0 347 287 285 299 273 268 277 297 316 306 293 312 319 327 293 17 39 9 360 351 329 319 314 318 326 333 330 326 317 309 306 287 270 258 253 256 251 230 221 213 207 210 204 197 193 185 176 169 159 156
61 98 66 23 353 307 320 275 266 279 280 326 308 306 312 327 324 313 23 27 351 2 10 3 10 13 2 348 340 333 326 324 313 312 307 303 286 266 258 257 247 237 228 223 211 211 209 198 196 195 187 179 169 165
166 139 127 297 209 291 277 282 272 283 308 331 302 299 342 328 325 3 28 355 352 356 4 12 8 12 7 359 357 348 333 321 315 311 311 315 296 278 269 255 235 229 228 218 214 216 209 206 201 200 197 192 185 178
101 187 165 190 170 219 303 290 289 304 312 304 293 300 334 312 338 36 2 349 348 355 5 7 1 360 5 8 0 357 344 330 320 318 326 313 291 273 257 253 241 236 222 218 222 213 206 213 210 204 201 197 193 188
172 245 221 219 225 257 275 262 271 266 257 265 311 321 329 344 33 11 343 353 349 3 14 11 5 8 12 16 16 23 27 26 21 25 28 10 348 263 244 247 253 260 237 216 214 209 210 210 218 209 205 200 197 196
224 225 214 166 217 224 268 281 254 248 255 252 297 310 11 53 358 329 333 349 2 10 13 14 18 23 23 26 25 26 27 36 52 50 118 67 64 55 230 238 240 235 214 210 219 221 214 212 222 217 208 205 199 196
212 199 204 257 215 214 221 232 261 257 251 252 271 36 98 79 12 3 9 10 17 16 16 18 20 24 30 37 36 34 32 32 34 34 31 23 20 16 34 46 149 195 207 206 203 214 222 219 223 216 211 207 205 200
213 182 196 230 223 228 230 216 238 295 260 206 187 120 115 98 48 37 30 23 21 23 26 27 28 28 27 28 31 35 34 35 35 32 26 22 16 10 6 24 69 144 169 203 214 217 212 212 189 185 195 217 212 202
170 176 204 236 261 250 310 309 306 292 237 198 218 169 159 156 71 30 33 30 27 26 31 31 30 29 29 29 27 25 29 31 34 35 35 33 31 27 17 25 41 62 109 173 196 211 215 200 200 206 221 226 216 207
184 196 197 220 252 292 312 327 308 209 94 107 73 138 131 109 75 22 15 20 27 29 30 28 26 26 30 33 34 32 30 27 27 31 33 32 34 36 34 33 30 45 60 94 156 182 200 214 217 219 219 221 213 206
201 205 212 254 259 271 328 345 10 93 65 74 59 53 74 86 93 27 24 24 30 27 22 23 27 27 31 30 32 33 32 30 30 33 34 35 37 39 41 44 47 51 64 73 70 74 115 232 226 221 219 214 204 196
Wind_Speed_850mb
46 48 51 50 53 57 60 59 58 58 51 45 44 38 32 16 10 20 28 31 31 21 55 50 41 22 16 12 7 19 17 3 6 10 7 7 6 6 7 8 11 5 7 4 10 11 13 17 20 10 12 46 33 40
46 51 50 52 58 60 60 60 58 53 48 44 41 39 31 23 19 18 30 25 27 35 49 69 81 74 73 70 36 12 10 12 4 5 1 5 6 5 10 6 2 4 3 5 6 6 13 32 32 66 70 56 63 41
46 48 52 57 58 61 61 57 53 48 46 45 42 40 34 24 17 20 33 33 35 36 52 31 20 9 12 8 26 19 13 11 6 10 3 4 9 3 6 5 6 7 12 5 6 6 23 35 50 55 10 19 2 12
46 50 54 56 61 58 58 54 50 48 46 44 42 39 35 31 24 27 33 32 28 19 11 17 16 46 37 31 36 39 43 15 11 7 9 5 7 7 5 8 8 8 13 10 9 15 26 15 46 49 40 46 36 26
47 51 55 59 56 56 56 52 48 48 47 44 40 36 34 30 27 29 35 36 34 28 9 27 58 2 14 14 24 31 47 54 19 6 6 6 7 5 7 6 6 14 8 5 5 28 15 21 40 47 42 47 43 37
47 53 53 54 52 53 54 51 48 46 46 43 41 37 31 29 22 19 10 1 6 25 8 8 16 11 12 15 9 23 36 30 20 6 9 8 9 7 5 4 7 15 11 10 12 23 16 30 30 33 35 36 38 47
50 49 51 52 51 52 53 51 48 46 46 46 45 40 33 26 21 17 8 12 18 10 7 10 10 8 15 5 2 9 20 18 17 8 9 7 6 9 4 6 13 15 9 15 21 12 17 26 26 31 33 34 29 36
47 48 50 51 50 50 51 50 49 49 45 44 42 31 23 17 20 25 14 27 21 13 9 5 8 11 3 3 5 9 9 14 11 7 6 6 6 5 6 6 8 13 6 19 18 17 16 23 32 33 31 28 28 39
47 48 48 48 49 48 48 48 48 46 43 44 31 14 8 4 5 4 12 16 32 14 7 7 5 6 6 5 5 5 8 6 7 6 5 4 4 8 6 3 7 13 7 9 13 20 23 32 34 37 31 29 30 37
46 46 47 46 45 44 44 45 46 45 47 33 15 1 4 5 11 13 6 9 28 13 13 8 7 7 5 2 3 3 4 3 5 5 4 6 6 11 11 8 4 10 10 10 17 22 21 27 27 29 32 27 25 28
43 44 45 44 41 40 41 40 40 49 42 31 20 6 10 15 12 7 7 8 14 7 11 11 19 13 10 8 4 4 2 3 4 3 5 4 5 3 12 12 5 17 9 15 18 15 18 26 25 29 30 30 22 21
39 41 40 40 39 37 36 32 38 48 41 39 27 26 14 5 7 6 6 6 9 7 8 6 8 16 8 13 6 4 4 2 6 5 2 5 5 4 15 16 18 22 15 10 14 15 19 28 33 31 32 32 29 20
38 36 34 34 37 36 34 35 40 43 45 12 4 7 6 4 6 10 8 6 6 6 6 4 5 9 8 11 5 4 6 6 5 4 5 7 3 12 19 16 18 19 20 11 12 14 17 26 36 42 42 41 35 25
34 27 29 32 33 33 36 39 39 40 22 5 5 9 9 9 10 8 5 4 6 13 18 24 11 9 9 8 2 6 2 2 2 4 7 4 9 23 28 22 21 20 20 20 14 11 14 23 31 37 43 39 32 30
31 26 25 21 32 38 39 40 38 33 9 8 6 9 10 11 12 11 11 14 13 19 16 18 10 10 4 4 6 3 5 5 7 7 5 3 3 23 28 26 21 19 20 21 18 11 10 15 24 29 34 37 42 42
28 25 15 26 33 37 38 41 37 11 8 9 12 10 13 13 13 5 6 11 17 20 24 8 6 4 6 2 6 9 6 8 5 6 14 11 3 25 26 24 23 20 19 21 21 14 9 9 18 21 26 35 41 45
22 13 25 31 36 38 35 31 6 5 7 8 8 12 20 25 24 19 16 27 27 13 5 5 5 5 2 3 5 3 5 6 13 17 18 20 11 20 26 23 22 23 22 19 20 17 14 10 14 16 22 28 35 43
19 22 26 31 34 39 20 9 5 6 8 11 14 17 15 23 28 29 24 26 16 12 8 5 15 6 5 5 4 3 4 17 19 25 26 28 18 13 24 22 21 23 30 21 21 20 17 19 13 14 17 21 27 33
21 22 21 20 28 26 11 7 6 8 10 20 22 25 28 28 35 35 38 40 33 18 9 9 9 6 6 6 10 15 24 24 30 34 35 38 30 19 18 23 24 22 27 30 28 23 19 18 15 16 17 19 23 25
13 10 15 19 18 7 5 5 7 9 11 14 27 25 32 39 39 37 35 32 18 10 11 8 7 7 10 12 22 27 27 32 31 29 40 41 25 25 24 21 28 25 26 26 30 31 31 26 20 17 18 17 18 24
5 16 21 18 3 3 3 6 6 9 15 13 23 32 33 27 33 26 20 20 5 2 4 8 15 20 23 29 25 29 32 25 24 26 33 50 35 26 27 30 27 32 29 34 35 37 36 34 29 25 22 21 20 21
16 22 14 11 6 2 5 6 10 19 11 17 23 21 21 15 23 13 29 2 5 10 15 25 28 32 35 34 37 32 32 30 27 29 34 43 33 30 31 30 41 42 36 41 41 39 40 41 36 30 25 22 19 20
14 8 5 4 4 3 7 10 6 6 7 11 22 13 7 9 12 29 3 9 14 26 41 36 31 28 29 31 31 29 30 35 36 33 30 30 36 36 47 32 30 48 51 45 50 44 43 41 40 39 38 34 29 26
5 4 2 3 3 6 11 5 7 9 8 8 9 12 11 13 20 7 6 12 38 46 53 50 49 34 23 26 29 33 37 41 40 37 30 29 31 32 36 41 39 38 49 47 49 53 50 52 48 45 42 36 30 25
4 3 2 2 2 3 5 5 6 6 6 14 7 7 7 14 6 6 6 26 53 53 62 61 56 53 45 38 35 37 34 37 39 44 40 32 28 30 32 26 31 35 41 49 52 60 53 55 55 52 48 41 32 26
4 5 5 5 3 4 4 6 3 7 9 6 6 12 8 6 3 8 15 39 46 57 62 61 60 56 50 45 45 50 43 29 28 34 37 27 24 21 23 25 27 33 41 43 46 56 52 44 57 58 54 47 39 30
3 4 6 9 3 2 9 11 12 8 6 4 5 8 6 7 8 9 26 38 50 53 50 51 46 45 48 53 51 62 54 24 16 12 22 21 14 11 20 21 25 28 36 53 47 62 59 59 60 65 61 55 49 39
7 4 6 4 6 8 6 6 5 5 5 5 6 3 5 4 6 16 26 41 40 43 41 43 46 44 43 48 55 58 62 60 46 19 6 22 19 9 5 17 22 21 23 35 42 52 65 52 54 65 66 61 55 48
7 7 5 5 6 8 10 7 6 6 6 4 3 2 6 6 14 18 27 31 33 38 44 51 52 48 51 46 55 60 62 66 69 68 64 60 50 40 25 13 7 19 27 38 39 40 46 58 60 62 63 61 55 51
6 14 5 5 5 7 11 15 12 20 18 14 9 12 15 15 27 28 25 29 38 42 39 39 45 51 55 60 59 62 63 62 62 60 56 55 50 40 38 30 14 13 17 23 35 39 36 36 50 45 61 63 66 63
8 12 5 7 8 10 15 19 22 18 13 7 8 18 21 14 7 36 40 34 32 35 39 40 42 49 52 55 59 60 63 63 61 56 54 50 46 42 35 35 27 21 13 18 24 28 32 45 56 47 45 49 65 71
14 15 10 7 8 14 18 13 6 3 3 4 5 11 12 8 7 17 42 37 33 34 36 34 37 41 43 43 44 46 47 49 53 58 59 58 58 53 39 33 28 25 20 12 17 20 22 28 36 40 43 51 63 73
9 13 15 7 5 4 5 9 1 6 7 5 8 11 10 7 8 13 21 34 36 37 31 26 29 30 37 40 41 39 40 42 44 48 50 53 56 56 56 51 41 32 25 25 21 11 2 7 15 23 30 41 53 61
Wind_Direction_850mb
322 325 327 333 329 328 327 329 330 328 325 323 323 328 327 304 300 294 283 288 277 274 286 274 272 243 255 236 251 310 323 49 301 12 354 336 296 322 290 281 310 301 304 220 218 236 267 22 330 237 330 311 303 300
323 327 327 327 324 326 328 327 325 325 323 322 321 323 325 316 281 288 296 285 284 276 270 284 287 282 268 258 251 270 284 298 254 294 213 293 286 287 292 302 39 299 270 288 253 294 297 292 256 263 262 265 280 285
323 323 323 323 324 328 328 326 326 325 323 322 320 318 315 305 301 275 289 293 292 283 295 285 292 293 307 315 218 218 237 233 219 218 265 282 272 259 293 329 289 240 210 242 301 264 289 301 336 343 51 207 11 53
319 320 321 323 325 328 327 327 329 327 324 322 323 322 317 311 285 261 269 274 268 277 282 280 302 301 292 258 243 256 244 260 279 217 226 248 263 202 286 284 289 280 307 279 253 278 319 310 347 356 18 50 37 49
316 318 321 323 324 326 326 328 331 328 327 327 326 323 321 311 304 295 289 282 251 231 284 296 313 341 329 313 246 242 238 245 272 241 222 238 248 266 227 284 279 340 331 323 330 307 307 327 344 360 12 35 26 40
316 319 322 322 324 327 327 329 332 331 327 325 320 316 309 303 302 315 312 355 314 214 266 291 309 313 337 338 259 233 233 233 238 253 246 254 249 236 292 273 253 331 22 337 284 317 351 354 358 358 7 19 20 36
315 318 321 321 325 326 326 328 329 330 328 324 317 312 303 287 257 230 249 282 314 172 249 280 284 277 315 307 194 201 211 224 230 250 232 255 267 221 261 274 346 354 16 6 11 11 20 12 355 355 359 16 12 28
313 317 318 321 326 326 325 325 328 333 333 325 321 316 310 294 251 255 274 266 247 206 242 265 276 302 274 245 210 201 208 217 227 262 254 245 258 238 257 264 325 5 10 23 34 52 42 14 16 13 16 14 30 38
314 316 318 321 327 325 325 326 331 336 336 332 329 324 313 330 187 185 280 307 225 213 264 232 264 288 320 257 231 225 220 235 227 243 239 211 219 232 239 160 43 23 16 63 50 38 33 23 16 21 25 19 31 42
312 314 318 323 324 325 328 331 333 337 341 341 336 320 228 233 285 288 251 202 189 227 231 251 219 261 298 303 275 265 211 275 254 219 230 233 259 260 228 168 66 53 46 72 43 22 31 27 24 27 31 34 33 45
311 315 318 322 322 326 329 334 337 340 347 359 346 309 285 274 289 221 244 220 192 239 226 239 225 242 248 217 249 232 275 261 271 77 284 302 270 202 165 144 116 112 74 59 57 43 55 37 33 33 32 41 40 51
312 317 318 319 322 326 329 332 337 338 340 323 304 300 301 271 239 250 226 226 195 241 200 213 258 220 238 215 221 187 259 239 255 349 250 262 257 219 158 142 129 124 111 71 47 72 52 39 33 33 36 40 47 59
316 320 320 322 321 323 325 335 333 332 332 330 292 271 242 229 237 218 226 209 218 202 155 13 318 271 197 205 227 199 220 234 314 252 244 242 171 183 175 158 139 132 123 106 59 53 56 46 36 36 38 43 45 62
319 324 321 320 319 328 334 331 331 333 334 298 265 264 214 214 231 221 252 352 23 345 321 312 272 279 207 172 176 222 158 223 243 250 245 216 214 181 173 163 160 154 146 131 111 92 44 43 41 43 44 48 57 71
319 328 324 324 323 324 325 320 319 319 267 262 233 244 240 250 271 283 300 313 305 302 323 314 259 228 201 166 189 198 180 248 230 239 247 238 165 177 179 176 170 162 155 149 132 106 71 49 45 53 56 54 56 63
325 337 337 325 318 318 319 314 319 302 238 239 236 265 285 290 294 303 308 299 340 322 311 235 263 257 232 240 184 220 188 213 262 240 280 311 153 176 185 181 181 170 160 155 147 136 116 70 48 60 67 65 62 63
333 340 326 324 325 330 327 319 314 248 261 265 277 298 288 286 282 297 319 318 330 325 286 272 225 244 57 238 224 219 196 235 275 313 329 325 315 187 180 187 182 177 173 160 166 156 151 126 64 66 71 70 69 71
330 335 332 329 336 341 342 26 341 287 271 277 292 305 304 286 291 297 300 314 319 313 281 280 320 220 221 249 234 251 309 296 334 359 338 331 316 226 203 189 192 190 184 177 180 181 166 151 117 97 95 94 84 83
338 340 343 341 342 345 352 14 9 298 282 298 290 304 306 303 307 309 306 302 299 291 269 281 252 224 226 241 304 322 345 340 336 318 315 323 299 262 231 216 203 191 182 183 190 192 181 165 146 125 116 112 101 92
343 358 348 334 333 332 333 292 292 273 272 301 303 308 304 298 298 299 298 302 263 216 206 220 259 31 341 323 317 317 315 311 303 293 291 306 314 260 245 235 213 206 199 195 188 188 180 176 164 142 126 119 116 111
33 349 342 338 22 193 282 308 281 263 293 289 300 317 306 312 312 305 295 294 244 231 300 7 334 326 324 306 316 323 317 313 296 277 273 292 309 302 267 236 221 208 210 201 195 192 195 190 177 162 149 140 139 127
354 344 6 25 28 342 274 252 266 290 280 280 305 311 297 308 330 342 330 286 61 25 355 331 321 321 319 322 323 330 328 321 313 292 263 266 267 270 269 246 226 219 214 208 205 204 195 191 183 174 164 153 143 138
343 20 31 0 347 287 285 299 273 268 277 297 316 306 293 312 319 327 293 17 39 9 360 351 329 319 314 318 326 333 330 326 317 309 306 287 270 258 253 256 251 230 221 213 207 210 204 197 193 185 176 169 159 156
61 98 66 23 353 307 320 275 266 279 280 326 308 306 312 327 324 313 23 27 351 2 10 3 10 13 2 348 340 333 326 324 313 312 307 303 286 266 258 257 247 237 228 223 211 211 209 198 196 195 187 179 169 165
166 139 127 297 209 291 277 282 272 283 308 331 302 299 342 328 325 3 28 355 352 356 4 12 8 12 7 359 357 348 333 321 315 311 311 315 296 278 269 255 235 229 228 218 214 216 209 206 201 200 197 192 185 178
101 187 165 190 170 219 303 290 289 304 312 304 293 300 334 312 338 36 2 349 348 355 5 7 1 360 5 8 0 357 344 330 320 318 326 313 291 273 257 253 241 236 222 218 222 213 206 213 210 204 201 197 193 188
172 245 221 219 225 257 275 262 271 266 257 265 311 321 329 344 33 11 343 353 349 3 14 11 5 8 12 16 16 23 27 26 21 25 28 10 348 263 244 247 253 260 237 216 214 209 210 210 218 209 205 200 197 196
224 225 214 166 217 224 268 281 254 248 255 252 297 310 11 53 358 329 333 349 2 10 13 14 18 23 23 26 25 26 27 36 52 50 118 67 64 55 230 238 240 235 214 210 219 221 214 212 222 217 208 205 199 196
212 199 204 257 215 214 221 232 261 257 251 252 271 36 98 79 12 3 9 10 17 16 16 18 20 24 30 37 36 34 32 32 34 34 31 23 20 16 34 46 149 195 207 206 203 214 222 219 223 216 211 207 205 200
213 182 196 230 223 228 230 216 238 295 260 206 187 120 115 98 48 37 30 23 21 23 26 27 28 28 27 28 31 35 34 35 35 32 26 22 16 10 6 24 69 144 169 203 214 217 212 212 189 185 195 217 212 202
170 176 204 236 261 250 310 309 306 292 237 198 218 169 159 156 71 30 33 30 27 26 31 31 30 29 29 29 27 25 29 31 34 35 35 33 31 27 17 25 41 62 109 173 196 211 215 200 200 206 221 226 216 207
184 196 197 220 252 292 312 327 308 209 94 107 73 138 131 109 75 22 15 20 27 29 30 28 26 26 30 33 34 32 30 27 27 31 33 32 34 36 34 33 30 45 60 94 156 182 200 214 217 219 219 221 213 206
201 205 212 254 259 271 328 345 10 93 65 74 59 53 74 86 93 27 24 24 30 27 22 23 27 27 31 30 32 33 32 30 30 33 34 35 37 39 41 44 47 51 64 73 70 74 115 232 226 221 219 214 204 196